Terminal Aerodrome Forecast
Issued by NWS

Home | Current Version | Previous Version | Text Only | Print | Product List | Glossary Off
Versions: 1 2 3 4 5 6 7 8 9 10 11 12 13 14 15 16 17 18 19 20 21 22 23 24 25 26 27 28 29 30 31 32 33 34 35 36 37 38 39 40 41 42

000
FTUS43 KGRB 222100 AAA
TAFRHI
TAF AMD
KRHI 222111Z 2221/2318 23008KT 3SM BR OVC006
      TEMPO 2221/2224 1 1/2SM BR OVC004
     FM230000 20004KT 1 1/2SM BR OVC003
     FM230400 17005KT 3/4SM BR OVC002
     FM230800 17007KT 3/4SM -DZ BR OVC002
      TEMPO 2308/2312 1/4SM -DZ FG VV001
     FM231200 18007KT 1/2SM -DZ FG VV001
     FM231500 18007KT 1SM -RA BR OVC003=

USA.gov is the U.S. government's official web portal to all federal, state and local government web resources and services.